GEFSMA_500_meanwind_300.txt.gz
Wind_Speed
4 4 3 3 3 2 1 2 2 2 1 1 1 2 2 2 3 2 3 3 3 2 2 2 3 3 4 4 4 5 4 5 6 6 6 6 6 6 6 6 6 6 6
4 3 2 3 3 2 2 2 2 2 2 2 2 2 2 3 3 3 4 4 3 3 2 2 3 3 4 4 4 4 5 5 5 5 6 6 6 7 7 8 8 8 7
3 2 2 3 3 3 2 2 3 3 3 3 3 3 4 3 4 4 4 4 2 3 2 3 3 3 3 4 4 4 5 6 6 6 6 6 7 8 8 8 8 8 9
4 3 3 3 3 3 3 3 2 3 4 3 3 4 4 4 4 4 4 2 2 3 3 3 3 3 3 4 4 4 4 5 5 5 5 6 6 7 7 7 8 8 8
4 4 4 3 3 3 3 3 3 4 4 3 3 4 5 5 4 4 3 3 3 3 3 3 4 3 4 4 4 4 4 5 4 5 5 5 6 6 7 7 7 7 8
4 5 4 4 3 3 3 4 4 3 4 3 3 4 5 5 4 4 4 4 3 3 4 4 4 3 4 5 5 4 4 4 4 4 5 5 6 6 8 8 8 7 8
4 5 4 3 4 4 4 4 4 4 5 4 4 4 5 5 4 4 4 4 4 4 4 3 3 3 4 5 4 4 4 4 4 5 6 6 7 7 8 8 8 8 9
4 4 4 4 5 5 5 5 4 5 5 5 5 5 5 4 4 4 4 4 4 4 3 3 3 3 4 4 5 5 5 5 5 6 6 7 7 8 8 8 8 9 9
4 4 4 5 5 5 5 5 5 5 4 4 5 5 5 5 5 4 5 5 5 5 4 3 3 3 4 5 6 6 7 6 7 8 8 8 8 9 9 9 10 10 11
5 5 5 6 6 5 5 5 5 5 4 4 5 5 5 5 5 5 6 5 6 5 5 5 4 4 5 6 7 7 8 8 8 9 9 9 10 10 10 11 12 12 13
6 6 6 6 5 6 6 6 5 5 4 5 4 5 6 6 6 6 6 6 7 7 6 6 5 6 6 7 7 8 8 9 9 9 10 10 11 11 11 12 13 13 14
7 8 8 7 6 6 6 6 5 5 5 5 5 6 6 7 7 7 7 8 8 8 8 7 7 8 8 8 8 9 9 10 11 11 11 11 12 12 13 13 14 14 15
8 8 9 8 7 6 6 6 6 6 6 6 7 7 7 8 8 8 8 9 9 9 9 9 9 9 9 9 9 9 10 11 12 12 12 12 13 13 14 14 15 15 16
8 8 8 8 7 6 6 7 7 7 7 8 8 8 8 9 9 9 9 10 9 10 10 10 10 10 9 10 10 10 11 12 13 13 13 14 14 14 14 15 16 17 17
10 10 9 9 8 7 7 7 8 8 8 9 9 9 9 10 10 10 11 11 10 10 11 11 11 11 11 11 11 12 12 13 13 14 14 14 15 16 16 17 17 17 18
11 11 10 9 9 8 8 9 9 10 10 9 10 10 10 11 11 11 12 12 12 12 12 12 13 13 13 12 12 13 14 14 15 15 15 15 16 17 17 18 19 18 18
11 11 11 11 10 10 10 10 10 11 11 10 11 11 11 11 12 12 12 13 13 13 13 13 13 13 13 13 13 14 15 15 15 15 16 16 17 18 18 19 19 19 20
12 11 12 12 12 11 11 11 12 12 12 12 12 11 11 12 12 12 13 13 13 13 14 14 13 14 14 14 14 15 16 16 16 16 17 18 19 19 20 20 20 20 20
12 12 12 12 12 12 12 13 13 13 13 13 13 13 13 13 13 13 14 14 14 15 15 15 14 15 15 16 16 16 17 17 17 17 18 19 20 20 20 21 21 21 20
14 14 14 13 13 13 13 14 14 14 14 14 14 14 14 14 14 15 15 15 15 15 16 16 16 17 17 17 17 17 18 18 18 18 19 19 20 20 21 21 21 21 21
16 16 15 14 14 14 14 14 15 15 15 15 15 14 14 15 16 16 15 16 16 16 17 17 17 17 17 18 18 19 19 19 19 19 19 20 20 20 20 21 21 21 21
18 17 16 16 16 16 16 16 16 16 16 16 15 15 15 16 17 17 17 17 17 17 17 18 18 18 19 19 19 20 20 20 21 21 21 21 21 20 20 20 21 21 21
20 19 18 18 18 18 18 18 18 18 18 17 16 16 17 17 17 18 18 19 18 18 18 18 18 19 19 19 20 21 21 21 22 22 22 22 22 21 21 21 21 21 22
21 21 21 20 20 19 19 19 20 20 20 18 18 18 18 19 18 18 19 19 19 19 19 19 19 20 20 21 22 22 22 22 22 23 22 22 23 22 22 22 23 23 23
22 22 21 21 21 21 21 21 21 21 20 20 20 21 21 21 20 20 20 20 19 19 20 20 21 21 22 23 23 24 24 23 23 23 23 23 23 24 23 23 23 24 24
24 23 23 23 23 24 23 23 23 22 22 23 24 24 24 23 22 22 21 21 21 21 21 22 22 22 23 24 25 25 26 25 25 25 25 25 25 25 25 25 25 25 24

GEFSMA_500_meanwind_306.txt.gz
Wind_Speed
4 3 3 2 2 1 1 1 1 1 1 1 1 1 2 2 3 3 2 2 1 1 1 2 3 4 3 4 3 4 4 4 4 4 5 5 6 6 7 8 7 7 6
3 3 3 3 3 3 2 2 2 1 1 1 2 2 1 2 2 2 2 2 2 2 2 2 3 3 3 3 4 4 4 4 4 4 4 5 6 6 6 7 8 8 7
3 3 3 3 3 3 3 3 2 2 1 1 2 2 2 1 1 2 1 2 2 2 3 3 3 3 3 3 4 4 4 4 4 4 4 4 6 7 6 6 7 8 8
3 3 3 3 2 2 2 3 3 2 2 2 2 2 2 1 1 1 1 1 1 2 3 3 3 3 3 3 4 4 3 4 4 4 4 4 5 6 7 7 7 7 8
3 3 3 2 2 2 2 2 2 2 2 2 1 2 2 2 1 1 1 1 1 2 2 2 2 3 3 2 3 3 3 4 4 4 4 5 5 6 7 7 8 8 8
3 3 3 2 2 2 2 3 3 3 3 2 2 2 2 1 1 2 1 1 1 1 2 2 2 3 3 3 3 3 3 3 4 4 5 5 5 6 7 7 7 7 8
4 3 3 2 2 2 2 2 3 3 4 3 3 2 2 2 2 2 2 2 2 1 1 2 2 2 2 2 3 3 3 4 4 5 5 6 6 7 7 7 8 8 8
4 4 3 3 3 2 2 3 3 4 3 4 3 2 2 2 3 2 2 2 2 1 1 2 2 2 3 4 3 3 4 5 6 6 6 6 7 7 8 8 8 9 9
5 5 3 3 3 3 3 4 3 3 3 3 2 2 2 3 3 3 2 1 0 1 2 2 2 3 4 4 5 5 6 6 6 6 7 7 7 8 8 9 9 10 10
5 5 4 4 4 4 4 4 4 4 4 3 3 4 4 3 3 3 2 2 2 2 3 3 4 5 5 6 6 6 6 7 7 7 7 8 8 8 9 9 10 10 11
6 6 5 5 4 4 5 5 4 4 4 5 4 4 4 3 3 3 3 3 3 3 4 4 5 5 5 6 7 7 6 7 8 8 8 9 9 9 9 10 11 11 11
7 7 6 6 5 4 5 5 5 5 5 5 5 4 4 3 3 4 4 5 5 5 5 5 6 7 7 7 7 7 7 8 8 9 10 10 10 10 11 11 11 12 12
7 7 6 6 5 5 5 5 5 5 5 5 5 5 4 4 4 5 5 5 6 6 6 7 7 8 8 8 8 8 9 9 9 10 10 11 12 12 12 12 12 13 14
8 7 7 7 7 6 6 6 6 6 6 6 5 5 4 5 5 5 6 6 6 7 7 8 9 9 9 8 8 9 10 10 11 12 12 12 12 12 13 13 14 15 15
8 8 8 8 7 6 6 6 7 6 6 6 6 6 6 6 6 6 7 7 7 7 8 8 9 10 10 9 9 10 11 12 12 12 12 12 13 13 13 14 15 15 16
9 9 9 8 7 7 7 7 7 7 7 7 7 7 7 8 8 9 9 9 9 9 9 10 10 10 11 12 12 12 12 12 12 13 13 13 13 14 14 15 15 16 17
10 10 10 9 8 7 7 8 8 8 8 8 9 9 9 9 10 10 10 10 10 11 10 11 11 11 12 13 14 14 12 12 13 14 14 14 15 15 16 16 16 16 17
11 10 10 10 8 8 8 8 8 8 9 9 10 10 10 11 11 11 11 12 12 12 12 12 13 13 13 13 13 14 14 14 14 14 14 15 16 17 16 17 17 17 18
11 11 11 11 11 10 9 10 9 9 10 10 10 11 11 11 12 12 12 13 14 13 13 13 13 14 14 15 15 15 15 15 15 15 16 16 17 18 18 17 18 18 19
12 12 12 12 12 12 11 11 11 11 11 12 12 11 11 12 13 13 13 14 15 15 14 15 15 15 15 16 16 16 16 16 16 17 17 18 18 18 18 19 19 20 20
14 14 14 14 13 13 14 14 13 13 13 13 13 13 13 14 14 14 14 15 15 16 16 16 16 16 16 16 17 17 17 17 18 17 18 19 20 20 20 20 21 21 21
16 16 16 15 15 15 15 16 15 15 15 15 14 15 15 15 16 16 16 16 17 17 18 18 17 17 18 17 17 18 18 19 19 19 20 20 20 20 21 21 21 22 22
18 18 17 18 17 17 17 17 17 17 17 16 16 16 17 17 18 17 18 18 19 19 19 19 18 18 19 19 19 19 20 20 20 20 21 20 20 21 22 22 22 23 23
21 20 20 20 20 19 19 19 18 19 19 19 19 18 19 19 19 19 20 20 20 20 21 20 19 20 20 20 20 20 21 21 22 22 21 21 21 22 22 22 23 23 24
22 22 22 22 21 21 21 20 20 21 21 21 21 21 22 22 21 21 21 21 21 21 21 21 21 21 21 20 21 21 21 22 22 22 23 23 23 23 23 24 24 24 25
24 24 24 23 23 22 22 22 23 22 23 23 23 24 24 23 23 23 23 23 23 22 22 23 23 22 21 21 21 22 22 22 22 22 23 25 25 25 26 26 25 25 25

GEFSMA_500_meanwind_312.txt.gz
Wind_Speed
2 2 2 1 1 1 1 0 1 2 2 1 2 2 2 2 2 2 2 2 2 2 3 3 4 3 4 4 4 4 3 4 4 4 5 5 6 6 7 7 7 8 8
1 2 2 1 1 1 0 1 1 2 2 2 3 3 2 3 3 2 3 3 3 3 3 3 4 3 4 4 4 5 4 4 5 5 5 5 5 6 7 7 7 7 8
1 0 0 0 1 1 1 1 1 2 2 2 2 2 3 4 3 3 3 3 3 3 3 4 4 5 5 5 5 5 5 6 6 6 5 6 6 7 7 7 7 8 8
1 1 1 1 1 1 1 1 2 3 3 3 4 4 4 3 3 3 3 3 2 3 3 4 4 4 5 5 5 5 6 6 6 7 7 7 7 7 6 7 7 8 9
2 1 1 1 1 2 2 2 2 3 4 4 4 4 4 4 4 3 4 3 3 3 3 4 4 5 5 6 7 6 6 6 6 7 7 7 7 7 7 7 8 9 10
3 3 2 2 2 3 3 3 3 4 4 4 5 5 5 4 4 4 4 4 4 4 5 5 5 5 6 6 6 7 7 7 7 7 7 7 7 7 7 8 9 9 10
5 5 3 2 3 4 4 4 4 5 5 6 6 5 5 4 5 5 5 5 5 5 6 6 5 6 6 6 7 7 7 7 7 7 7 7 8 8 9 9 10 10 10
5 5 4 3 4 4 4 5 5 6 6 6 6 6 5 4 5 5 6 6 6 7 7 6 7 7 7 7 6 7 8 9 8 9 9 9 9 9 9 10 10 11 11
6 6 6 5 5 5 5 5 6 7 6 6 6 6 5 5 5 6 6 6 6 6 6 6 7 6 7 7 8 8 9 10 10 10 10 10 10 10 10 10 10 10 11
7 6 6 5 6 6 6 6 6 6 7 6 6 6 6 6 7 7 6 6 6 6 6 7 7 8 8 8 8 9 10 10 10 10 10 10 10 10 10 11 11 12 12
7 7 7 6 5 6 6 6 6 7 7 7 7 7 8 8 8 7 6 6 6 7 7 8 8 8 9 9 9 9 10 10 10 10 10 11 11 11 11 12 12 13 13
8 7 6 6 6 6 7 7 7 6 7 8 8 9 9 8 9 8 8 7 7 7 7 8 8 8 8 9 10 10 10 11 11 12 12 11 12 13 13 14 14 14 14
9 8 7 6 6 7 8 8 8 8 8 9 9 10 10 9 9 9 9 8 8 8 9 9 9 10 10 10 10 11 12 12 12 12 12 13 13 14 14 14 14 15 15
10 8 8 8 8 8 8 9 9 9 10 11 11 11 11 11 10 10 10 10 10 10 10 10 11 11 11 11 11 12 12 12 13 13 13 13 14 15 15 15 15 16 16
11 10 10 10 10 10 10 10 11 11 11 11 11 12 12 12 11 11 11 11 11 12 12 11 11 12 13 12 12 12 12 13 13 14 14 15 14 15 15 15 15 16 16
12 12 11 11 11 11 11 11 12 12 12 11 12 13 13 12 11 12 13 13 13 13 13 12 13 13 14 14 14 13 13 13 13 14 15 15 15 15 15 16 16 17 17
14 13 13 13 13 12 12 12 12 12 12 12 13 13 13 13 13 13 14 14 14 14 14 14 15 15 15 15 15 15 15 15 15 15 15 15 15 16 16 17 17 18 18
15 15 15 14 14 14 14 13 13 13 13 14 14 13 13 13 14 14 15 15 15 15 16 16 16 16 16 16 16 17 17 17 16 16 17 16 16 17 17 18 19 19 19
17 17 16 15 15 14 15 15 15 15 15 15 15 15 15 14 15 15 15 16 16 17 17 17 17 17 18 18 18 18 18 18 18 18 19 18 18 18 19 19 20 20 20
19 19 18 17 17 16 16 17 17 17 16 16 16 16 15 15 16 16 17 17 18 18 19 19 19 19 19 19 20 20 20 20 20 20 20 20 20 20 20 20 21 21 21
21 21 21 20 19 19 19 19 18 18 18 18 18 18 18 18 17 18 18 19 19 19 20 20 21 21 21 21 22 23 22 22 21 22 22 22 22 22 22 22 22 22 23
21 22 22 22 21 20 20 20 20 19 19 19 20 20 20 20 19 20 20 20 21 21 21 22 22 22 22 23 23 23 24 23 23 23 23 23 23 24 24 23 23 23 24
23 23 24 24 23 23 22 21 21 21 21 21 20 21 21 21 21 21 21 21 22 23 23 23 23 24 24 24 25 25 25 25 25 25 24 24 24 25 25 25 25 24 25
25 25 24 24 24 23 23 23 23 23 23 22 22 22 22 22 22 22 22 22 24 24 24 25 25 25 25 25 25 25 25 25 26 26 25 25 25 25 26 26 26 25 25
27 26 26 25 25 25 25 25 25 25 25 24 24 24 24 24 24 24 24 24 25 25 26 26 26 27 27 28 28 27 27 26 26 27 27 26 26 26 27 27 27 27 26
28 28 28 27 26 26 26 27 27 28 27 27 26 26 26 26 26 26 26 26 27 27 28 28 29 29 29 30 30 28 28 27 27 27 28 28 28 28 28 28 27 27 27

GEFSMA_500_meanwind_318.txt.gz
Wind_Speed
2 2 1 1 2 2 2 2 2 2 3 3 3 3 3 3 2 2 2 3 3 3 3 4 5 6 5 4 3 4 6 8 8 8 8 7 7 7 7 7 7 7 7
2 2 2 2 2 2 3 2 3 2 3 3 4 4 3 3 3 3 2 3 3 4 4 4 5 5 5 4 4 4 5 6 6 7 7 7 8 8 8 7 7 7 8
2 2 3 3 2 2 2 3 3 3 4 4 4 4 4 4 4 4 4 4 4 4 4 5 6 6 5 5 5 5 6 7 7 7 7 7 8 7 8 9 8 8 8
2 2 3 3 3 2 2 3 4 5 4 4 5 5 5 5 5 5 5 5 5 5 4 4 5 6 6 6 6 6 6 7 7 7 7 7 8 8 8 9 9 9 9
3 3 3 3 3 3 3 3 4 5 5 5 6 6 6 6 6 6 6 5 5 5 4 4 5 5 5 6 6 7 7 7 7 8 8 8 8 7 8 8 9 9 9
4 4 4 3 3 3 4 4 5 5 6 6 6 6 6 7 7 6 6 6 5 5 5 5 5 6 6 7 7 7 7 8 8 8 9 8 8 8 8 9 9 9 9
6 5 4 4 4 4 4 5 5 5 6 6 7 7 7 7 7 7 6 6 6 6 7 7 7 7 7 7 8 8 8 8 8 8 9 10 10 10 10 10 11 11 10
6 5 5 6 6 6 6 5 6 5 6 6 7 7 6 7 7 8 8 7 8 8 8 8 8 8 8 9 8 8 8 8 9 10 11 11 11 11 11 10 11 11 11
6 6 6 6 6 6 6 6 6 6 6 7 7 7 7 7 7 7 8 8 8 9 9 9 9 8 8 8 7 8 8 9 10 10 10 11 11 11 10 10 11 11 11
8 7 7 7 7 7 7 7 7 7 7 7 7 7 7 8 8 8 8 8 8 8 9 9 9 9 9 10 9 9 9 9 10 10 10 11 11 11 12 11 11 11 12
9 8 8 8 8 8 7 8 8 8 8 8 8 8 8 9 9 10 10 9 9 8 9 10 11 10 10 10 11 11 10 10 10 11 11 11 12 12 12 13 12 12 13
9 9 8 9 9 8 8 9 9 8 8 9 9 10 10 10 10 10 10 9 9 9 9 10 10 10 11 11 11 11 11 11 11 11 12 12 12 12 13 13 13 13 14
10 10 10 10 10 10 10 9 9 9 9 9 10 10 10 11 11 10 10 10 10 11 10 10 11 12 12 11 11 11 12 12 12 12 12 13 13 13 13 13 14 14 14
12 12 11 10 10 11 11 10 10 10 10 10 11 10 11 11 11 12 12 12 12 12 12 11 11 11 11 11 12 12 12 12 12 12 12 13 14 14 14 14 15 15 15
13 13 13 12 12 12 12 11 11 11 11 11 11 11 11 12 13 13 14 14 13 13 13 13 12 12 12 12 13 13 13 13 13 13 13 13 14 15 16 16 16 16 16
14 14 14 14 14 13 13 12 11 11 12 12 13 13 13 13 13 14 14 14 15 15 15 15 15 14 14 14 14 14 14 14 14 14 14 14 15 15 15 15 16 16 17
15 15 15 15 15 14 14 13 12 13 13 13 14 14 15 14 14 14 14 15 15 15 16 16 16 16 16 16 16 15 15 15 15 14 15 15 16 16 16 16 16 16 16
17 17 17 17 17 15 15 15 14 14 15 15 15 15 16 16 16 16 16 16 16 16 16 17 17 17 17 17 17 17 17 16 16 16 16 17 17 17 17 17 17 17 18
19 19 19 19 18 17 17 17 16 16 16 17 17 17 17 17 17 17 18 18 18 17 17 17 19 19 19 19 19 19 19 19 18 19 18 18 18 18 18 18 19 19 19
21 21 21 20 20 19 19 19 19 18 18 19 19 19 19 18 18 18 18 18 19 19 19 19 19 20 20 20 20 20 20 20 20 20 20 19 19 19 18 19 20 21 21
23 23 22 22 22 22 22 21 21 20 20 21 21 21 20 20 19 19 19 19 19 20 20 20 20 21 21 21 21 21 22 21 21 21 20 21 21 21 20 20 21 22 23
25 25 24 24 24 24 24 24 23 23 22 22 22 21 21 21 20 21 21 21 21 21 22 22 22 22 22 23 23 22 22 22 22 22 22 23 23 22 22 22 22 23 23
26 26 26 26 26 26 26 25 25 25 25 24 24 24 23 23 22 22 23 23 23 23 24 24 24 24 24 24 25 25 24 24 24 24 24 24 25 25 25 24 25 25 25
27 27 27 27 27 27 27 27 26 26 25 25 25 25 26 25 24 25 25 24 24 25 25 25 25 25 25 26 26 26 25 25 25 25 25 26 27 27 27 27 26 26 27
27 27 28 28 28 28 28 28 28 27 27 26 26 26 27 27 27 27 27 27 26 26 26 27 27 27 27 28 28 27 27 26 26 26 26 27 28 29 29 28 28 28 29
28 28 28 28 28 28 28 28 28 28 28 28 27 28 28 28 29 29 29 29 29 29 29 29 29 28 28 29 30 29 29 28 28 28 28 28 29 29 30 30 30 30 30

GEFSMA_500_meanwind_324.txt.gz
Wind_Speed
5 5 6 6 6 5 5 4 4 4 5 5 5 4 5 4 4 4 3 2 3 3 3 3 3 4 4 3 3 3 5 5 6 6 7 8 7 7 7 7 7 7 7
6 6 6 7 6 5 5 4 4 4 5 5 6 5 5 5 5 6 4 3 3 4 4 3 3 4 4 4 3 4 4 5 6 6 7 7 8 7 7 8 7 7 7
6 6 6 7 6 5 5 5 5 5 5 5 6 5 5 5 5 6 5 4 3 3 3 4 4 4 4 3 3 3 3 5 5 6 7 8 7 7 8 7 7 7 7
6 6 7 7 6 6 6 6 6 6 5 5 6 5 5 5 5 6 7 5 4 3 3 4 5 5 5 4 4 4 4 5 5 6 7 7 7 7 8 8 8 8 9
8 7 7 7 8 7 7 7 7 6 6 6 6 5 6 6 6 6 6 6 5 4 4 4 5 5 5 5 5 5 5 6 6 7 6 6 6 6 7 8 9 10 9
8 8 8 8 9 9 8 8 8 7 7 7 6 6 6 6 7 7 7 7 6 5 5 5 4 5 4 5 6 5 6 6 6 7 7 7 7 7 8 9 9 9 9
9 9 9 9 9 9 8 8 8 8 8 8 7 7 7 7 8 8 8 7 7 6 6 6 5 5 6 5 5 6 6 6 6 7 7 8 8 8 8 9 9 9 9
10 9 10 10 10 9 9 9 9 9 9 8 8 8 8 8 8 8 7 7 7 7 7 7 6 6 5 6 6 5 5 6 6 7 7 8 8 8 9 9 9 9 10
11 11 11 11 10 10 9 9 9 8 8 8 8 8 9 8 8 8 8 8 8 8 7 7 7 7 6 6 6 5 6 6 6 6 6 7 8 9 10 10 11 11 11
13 12 12 11 11 10 9 9 9 9 8 7 8 9 9 9 8 8 9 9 8 8 8 7 7 8 8 8 7 7 7 7 7 6 7 7 8 10 11 12 11 12 12
13 12 12 12 12 12 11 10 9 9 9 9 9 9 10 10 10 9 9 8 8 8 8 8 8 8 9 10 9 9 9 8 8 8 9 9 10 11 11 12 12 12 13
14 13 13 13 13 12 11 11 10 10 10 10 11 11 11 11 11 10 10 9 9 8 8 9 9 9 9 9 10 10 10 9 10 11 11 11 11 11 12 13 13 13 13
14 14 14 14 13 13 12 12 11 11 11 11 12 12 12 12 12 11 11 11 10 10 10 10 10 9 10 10 10 11 10 10 10 11 12 12 12 12 13 13 14 14 14
15 15 15 15 14 13 13 13 12 12 12 12 13 12 12 12 13 12 11 12 12 11 11 11 11 11 11 11 12 12 12 12 12 12 13 13 13 14 14 14 13 13 14
17 17 16 16 16 15 14 14 14 13 13 13 13 13 12 13 13 13 13 13 13 12 12 12 12 12 12 13 13 13 13 13 13 14 14 14 14 15 15 15 14 15 15
19 18 17 17 16 16 15 15 15 15 15 15 15 14 14 14 15 15 15 14 14 13 13 13 13 13 14 14 13 14 14 15 15 15 15 16 16 16 16 16 16 16 15
20 20 19 19 18 17 16 16 16 17 17 16 17 17 16 16 16 16 16 16 16 16 15 15 15 15 15 15 15 15 15 15 16 16 16 16 16 17 17 17 16 16 16
21 21 21 20 20 19 18 18 18 18 18 18 18 18 17 17 17 17 18 18 18 18 17 17 17 17 16 16 16 15 16 16 17 17 17 17 17 17 18 17 16 17 17
23 22 22 21 21 20 20 20 20 20 20 20 20 20 20 20 20 19 19 19 19 19 19 19 19 19 19 19 18 18 18 18 18 18 18 18 18 19 19 18 18 18 18
23 23 22 22 22 22 22 22 22 22 22 22 21 21 22 21 21 21 20 20 20 21 21 21 21 21 21 21 20 20 20 20 20 19 19 20 20 20 20 20 20 20 20
24 24 24 23 23 24 23 24 24 23 23 23 23 23 23 23 22 22 22 22 22 22 23 23 22 22 22 22 21 21 22 21 21 21 21 21 21 21 22 22 22 22 21
26 26 25 25 25 25 24 25 25 24 24 25 25 25 24 24 24 24 24 25 24 24 25 25 24 23 23 23 23 23 23 23 23 23 24 23 24 24 24 24 23 23 23
27 27 27 27 27 26 26 26 27 27 27 27 27 26 26 26 26 26 26 26 27 27 27 27 26 25 25 25 25 25 24 25 25 24 25 25 25 24 25 24 24 24 24
29 28 28 28 28 28 28 29 29 29 29 28 28 28 27 27 27 27 27 27 27 28 28 28 28 27 27 27 27 27 26 26 26 26 26 26 26 26 25 24 25 25 25
30 30 29 28 29 29 30 30 30 30 30 30 30 29 28 28 28 29 29 28 29 29 30 30 29 29 29 30 30 29 29 27 27 27 27 27 27 27 27 26 25 25 26
30 30 30 30 30 30 30 30 30 30 30 30 30 30 30 30 30 30 30 30 30 30 31 31 31 31 31 31 31 31 30 30 29 29 29 29 28 28 28 28 27 27 27

GEFSMA_500_meanwind_330.txt.gz
Wind_Speed
4 4 4 4 3 3 3 3 3 4 4 4 4 3 2 2 1 2 2 2 3 4 5 5 5 6 6 6 7 6 6 7 8 7 7 8 9 9 9 9 9 9 10
4 4 4 4 4 3 3 4 4 4 4 5 4 3 2 3 2 3 3 3 4 5 6 6 6 6 7 6 6 7 7 8 8 8 8 8 9 10 9 9 10 10 11
5 5 4 4 5 5 4 4 4 4 5 5 4 4 3 3 4 4 3 4 3 4 5 6 6 6 7 6 6 6 6 8 9 8 8 8 9 10 10 10 11 11 11
6 6 6 5 5 5 6 6 5 5 5 5 5 5 4 4 3 3 2 2 2 3 4 6 7 7 7 7 7 7 6 8 9 8 8 9 9 9 10 10 10 11 11
7 7 7 6 6 6 6 7 6 6 6 6 5 6 5 5 4 4 4 4 4 4 4 5 7 7 7 8 8 8 8 8 8 9 9 9 10 10 10 11 11 11 11
8 7 7 7 7 7 7 6 6 7 6 6 6 6 6 5 5 5 5 5 5 5 5 5 6 7 7 8 8 8 8 9 9 10 10 10 10 11 11 11 11 11 11
9 8 8 7 7 7 7 7 6 7 6 6 6 6 6 6 5 6 6 6 6 5 5 5 5 6 7 7 8 8 8 9 10 11 11 12 12 12 12 11 11 12 13
9 8 8 8 7 7 7 7 7 7 7 7 7 7 6 6 6 6 6 6 6 6 6 6 6 6 6 6 7 9 9 9 10 11 12 12 13 12 12 12 12 12 13
10 9 9 9 8 8 8 8 8 7 8 8 8 8 7 7 7 7 6 6 6 7 7 6 7 8 8 8 8 9 10 10 11 11 12 12 12 12 12 12 12 12 13
10 9 9 9 9 9 9 9 9 9 9 9 9 8 7 7 7 7 7 7 8 8 8 7 7 8 8 8 9 9 10 11 10 10 11 11 11 11 11 12 12 13 14
11 10 10 10 10 9 9 9 9 9 9 9 8 8 7 7 7 7 7 7 8 9 9 9 8 8 9 9 10 10 11 11 11 12 12 12 13 14 14 14 14 14 14
12 12 11 10 10 10 10 10 10 11 10 10 9 9 8 8 8 8 8 8 9 10 11 10 10 10 10 10 10 10 11 12 13 12 13 13 13 14 14 15 15 15 15
14 13 11 11 11 11 11 11 11 11 11 11 11 11 10 9 9 9 9 9 10 11 12 12 11 11 11 11 11 12 12 13 14 13 13 13 13 14 15 16 16 15 15
14 14 13 13 13 13 12 12 12 12 12 12 12 12 11 11 11 11 11 11 11 11 12 13 13 13 12 13 13 13 13 13 13 14 14 14 15 15 15 16 17 17 17
15 15 15 14 14 14 14 14 14 13 13 12 12 13 13 13 13 13 13 13 13 13 13 13 13 13 13 13 13 14 15 14 14 14 14 15 16 16 17 17 18 18 17
17 16 16 16 16 16 16 16 15 15 14 14 14 14 15 15 15 15 15 14 14 15 15 15 15 14 14 15 15 15 15 15 15 15 16 16 17 17 18 18 18 18 17
17 17 17 17 16 16 16 17 17 17 16 16 16 16 16 17 17 17 17 17 16 16 16 16 16 16 16 16 16 16 17 17 17 17 18 19 19 19 18 18 19 19 19
18 18 18 18 18 18 18 19 18 18 18 18 18 18 17 17 17 17 18 18 19 19 18 18 18 19 18 18 18 18 19 19 19 19 19 20 20 21 20 20 20 21 21
19 20 20 20 20 20 20 20 20 20 20 20 20 20 20 20 19 19 20 20 19 20 20 19 20 21 20 20 19 19 20 20 21 21 20 20 21 22 22 22 22 22 22
20 21 20 20 21 21 22 22 22 22 22 22 22 22 22 22 22 22 22 21 21 21 21 22 22 22 23 22 22 22 22 22 22 22 21 21 22 23 23 23 23 23 23
22 22 22 22 21 21 22 22 22 23 23 24 24 23 24 24 23 23 23 23 23 23 23 23 24 25 25 25 25 25 24 25 25 24 24 24 24 24 25 24 24 24 25
23 24 23 22 22 23 23 23 24 24 24 24 24 24 25 25 25 25 25 25 25 25 25 25 25 26 27 27 27 28 27 27 27 27 27 27 27 27 27 26 26 26 26
25 25 25 24 24 24 24 24 24 24 25 25 25 25 26 26 26 27 27 27 27 27 27 27 27 27 28 29 30 30 29 29 28 28 29 29 29 29 28 28 28 28 28
26 26 26 26 25 25 25 25 26 26 26 26 27 27 27 27 28 28 28 28 28 28 29 29 28 28 28 29 30 29 29 30 30 30 30 30 30 30 30 29 29 30 29
27 27 27 27 27 27 27 27 28 28 28 28 29 29 29 29 29 29 29 29 29 30 30 30 30 30 30 30 30 30 30 30 30 30 31 31 31 31 31 31 30 30 29
28 28 28 28 29 29 29 29 29 30 30 30 30 31 31 30 31 31 31 31 31 31 32 32 32 32 32 31 32 32 31 31 31 31 31 31 31 31 31 31 30 30 30

GEFSMA_500_meanwind_336.txt.gz
Wind_Speed
4 5 4 5 6 7 6 5 5 5 5 5 5 4 4 4 3 2 3 4 4 5 7 8 9 9 10 9 10 10 9 9 9 10 10 10 10 10 10 10 10 10 10
6 6 6 6 6 6 6 5 5 5 5 5 5 5 5 4 4 4 3 5 5 6 7 8 8 9 9 10 10 9 9 9 9 10 11 11 10 11 11 11 11 10 10
6 7 7 7 7 7 7 6 5 5 5 5 5 4 5 5 5 5 5 6 6 7 8 8 9 9 9 10 11 9 9 9 9 9 10 10 10 11 11 12 11 12 11
7 7 7 7 7 7 7 7 6 5 6 5 5 5 5 5 6 6 6 6 6 7 8 8 9 10 10 10 11 10 10 10 9 9 9 10 10 10 11 12 12 12 12
8 8 8 8 8 8 8 8 7 6 6 6 6 6 6 6 6 6 6 7 7 7 8 8 9 9 10 10 10 10 10 10 10 10 11 10 11 11 11 12 13 13 13
8 8 9 9 9 9 8 8 8 7 7 6 7 7 6 6 6 6 7 7 7 8 8 8 9 9 10 11 11 11 11 11 11 11 11 11 11 12 12 13 13 13 13
9 9 9 9 9 9 9 9 9 8 7 6 6 7 7 6 6 5 6 6 7 7 8 9 10 10 10 11 11 11 11 12 12 12 12 12 12 12 13 13 14 15 15
9 9 10 9 9 9 9 9 9 9 8 7 7 6 6 7 7 7 7 8 8 9 9 10 10 10 11 11 12 12 12 12 13 13 13 13 14 13 14 14 15 15 14
10 10 10 11 11 11 10 10 9 9 9 8 8 7 7 7 7 8 8 9 9 10 11 12 12 11 11 11 12 12 12 13 14 15 15 15 15 15 15 15 14 14 14
11 11 11 11 11 12 11 11 10 10 9 9 9 9 9 8 7 8 9 10 12 12 12 12 11 11 12 12 12 13 13 14 15 16 17 17 16 17 16 14 15 16 15
12 12 12 11 12 12 12 11 11 11 11 11 11 10 10 9 9 10 10 10 11 12 13 12 12 12 13 13 14 14 14 14 14 15 16 17 16 16 15 14 15 15 15
13 13 13 12 13 13 13 13 13 12 12 12 12 11 11 11 11 11 11 11 12 13 14 14 14 14 13 14 14 15 15 16 16 16 16 16 17 17 16 16 16 16 16
14 14 14 14 14 14 14 14 14 13 13 12 12 13 13 13 13 13 13 13 13 13 14 14 15 15 14 14 15 16 16 16 16 16 17 17 18 19 19 18 18 18 18
14 15 16 16 16 16 16 15 15 15 15 15 14 14 14 14 15 15 15 15 15 15 15 15 16 15 15 16 16 17 17 17 17 17 17 18 18 19 20 19 19 19 18
15 16 16 17 17 17 17 17 17 17 17 17 17 16 16 16 16 16 17 17 17 16 16 17 18 18 18 17 18 18 18 17 18 19 19 19 19 19 19 20 20 20 20
17 17 17 18 18 18 18 19 19 19 19 19 19 19 19 18 18 18 19 19 18 17 17 18 19 20 20 19 19 20 20 19 19 20 20 20 20 19 19 19 20 20 20
18 18 19 19 19 19 20 20 20 20 20 20 20 20 20 20 20 20 20 20 21 20 19 19 20 21 21 21 21 21 21 20 21 21 20 20 20 21 21 20 20 20 21
19 19 19 20 20 20 21 21 21 22 22 22 22 22 22 22 22 22 22 22 22 22 22 21 22 22 22 22 23 22 22 22 22 22 22 22 22 21 21 22 22 22 23
20 20 20 21 21 22 22 22 22 23 23 23 23 23 23 24 24 24 24 24 24 24 24 23 24 24 25 24 24 25 24 25 24 24 24 24 24 23 23 23 23 23 23
21 21 22 22 22 23 23 23 24 24 24 24 24 24 24 24 24 25 25 25 25 25 25 25 25 25 26 26 26 26 26 27 27 27 27 26 26 26 25 25 25 25 25
23 23 23 24 24 24 24 24 24 24 24 25 25 25 26 25 25 26 26 26 27 27 27 27 28 28 28 29 29 29 28 28 28 29 29 28 29 28 28 27 27 26 26
25 25 25 25 26 26 25 25 25 25 26 26 26 26 27 27 27 27 27 28 28 28 29 29 29 30 30 31 31 31 30 30 29 30 30 30 30 29 29 29 29 29 28
26 26 26 27 27 27 27 27 27 27 27 27 27 27 27 28 28 28 28 29 29 30 30 31 31 31 32 32 32 32 32 32 32 31 31 31 31 31 30 30 31 31 30
28 28 28 29 29 29 29 29 29 29 29 29 29 29 29 29 29 29 30 30 31 31 32 33 33 33 33 33 33 33 32 32 33 32 32 32 32 32 32 32 32 32 31
29 29 30 30 30 30 31 31 30 30 30 31 31 31 31 31 31 31 32 32 32 33 33 33 33 33 33 33 33 33 33 33 33 33 33 32 32 33 33 33 33 33 32
30 30 30 30 30 30 31 31 31 31 31 32 32 33 33 33 33 33 33 33 33 33 33 33 34 34 34 34 34 33 33 34 34 34 33 33 33 34 34 33 34 33 33